Weather History for Springfield, OH

Change the Weather History Date:

Friday, January 4, 2013

  Actual Average (KDAY) Record (KDAY)
Temperature  
Mean Temperature 24 °F 28 °F  
Max Temperature 28 °F 35 °F 64 °F (1997)
Min Temperature 21 °F 21 °F -18 °F (1904)
Degree Days  
Heating Degree Days 40 37  
Month to date heating degree days 148  
Since 1 July heating degree days 2307  
Cooling Degree Days 0 0  
Month to date cooling degree days 0  
Year to date cooling degree days 0  
Moisture  
Dew Point 16 °F    
Average Humidity 69    
Maximum Humidity 75    
Minimum Humidity 61    
Precipitation  
Precipitation 0.00 in 0.10 in 2.50 in (2004)
Month to date precipitation 0.40  
Year to date precipitation 0.40  
Snow  
Snow 0.00 in 0.20 in 4.20 in (1914)
Month to date snowfall 0.9  
Since 1 July snowfall 6.4  
Snow Depth -    
Sea Level Pressure  
Sea Level Pressure 30.32 in    
Wind  
Wind Speed 14 mph (WSW)    
Max Wind Speed 20 mph    
Max Gust Speed 23 mph    
Visibility 6 miles    
Events      
T = Trace of Precipitation, MM = Missing Value Source: NWS Daily Summary

Daily Weather History Graph

Daily Weather History Graph

Search for Another Location

Airport:

Trip Planner

Search our weather history database for the weather conditions in past years. The results will help you decide how hot, cold, wet, or windy it might be!

Date:

Astronomy

Jan. 04, 2013 Rise Set
Actual Time 7:56 AM EST 5:24 PM EST
Civil Twilight 7:26 AM EST 5:54 PM EST
Nautical Twilight 6:53 AM EST 6:28 PM EST
Astronomical Twilight 6:20 AM EST 7:00 PM EST
Moon No Moon Rise 11:40 AM EST (1/4)
Length of Visible Light 10h 27m
Length of Day
9h 27m
Waning Gibbous, 55% of the Moon is Illuminated
Jan 4
Waning Gibbous
Jan 4
Last Quarter
Jan 11
New
Jan 18
First Quarter
Jan 26
Full

Hourly Weather History & Observations

Time (EST) Temp. Windchill Dew Point Humidity Pressure Visibility Wind Dir Wind Speed Gust Speed Precip Events Conditions
12:56 AM 27.1 °F 17.5 °F 19.0 °F 72% 30.30 in 7.0 mi West 10.4 mph - N/A   Overcast
1:56 AM 27.1 °F 15.9 °F 19.0 °F 72% 30.29 in 7.0 mi West 13.8 mph - N/A   Overcast
2:56 AM 27.1 °F 15.9 °F 20.1 °F 75% 30.30 in 6.0 mi WSW 13.8 mph - N/A   Haze
3:56 AM 27.1 °F 15.9 °F 20.1 °F 75% 30.30 in 6.0 mi West 13.8 mph - N/A   Haze
4:56 AM 27.1 °F 16.9 °F 20.1 °F 75% 30.30 in 6.0 mi West 11.5 mph - N/A   Haze
5:35 AM 24.8 °F 11.1 °F 15.8 °F 69% 30.26 in 7.0 mi West 18.4 mph - N/A   Scattered Clouds
5:56 AM 23.0 °F 9.6 °F 15.1 °F 72% 30.30 in 7.0 mi WSW 16.1 mph - N/A   Partly Cloudy
6:56 AM 21.0 °F 7.1 °F 14.0 °F 74% 30.31 in 7.0 mi WSW 16.1 mph - N/A   Clear
7:56 AM 21.0 °F 7.6 °F 14.0 °F 74% 30.32 in 5.0 mi WSW 15.0 mph - N/A   Haze
8:56 AM 22.1 °F 9.5 °F 15.1 °F 74% 30.33 in 5.0 mi WSW 13.8 mph - N/A   Haze
9:56 AM 23.0 °F 10.6 °F 16.2 °F 75% 30.35 in 5.0 mi WSW 13.8 mph - N/A   Haze
10:56 AM 25.2 °F 11.6 °F 18.1 °F 75% 30.35 in 5.0 mi WSW 18.4 mph - N/A   Haze
11:56 AM 26.1 °F 13.6 °F 18.1 °F 72% 30.33 in 5.0 mi WSW 16.1 mph 23.0 mph N/A   Haze
12:56 PM 28.0 °F 16.1 °F 17.1 °F 63% 30.31 in 6.0 mi West 16.1 mph - N/A   Haze
1:56 PM 28.0 °F 15.3 °F 16.2 °F 61% 30.29 in 5.0 mi WSW 18.4 mph - N/A   Haze
2:56 PM 28.0 °F 14.9 °F 16.2 °F 61% 30.30 in 6.0 mi WSW 19.6 mph - N/A   Haze
3:56 PM 27.1 °F 14.1 °F 16.2 °F 63% 30.31 in 6.0 mi West 18.4 mph - N/A   Haze
4:56 PM 26.1 °F 14.0 °F 15.1 °F 63% 30.33 in 6.0 mi West 15.0 mph - N/A   Haze
5:56 PM 25.2 °F 13.9 °F 14.0 °F 63% 30.32 in 7.0 mi WSW 12.7 mph - N/A   Clear
6:56 PM 25.2 °F 13.9 °F 14.0 °F 63% 30.33 in 7.0 mi WSW 12.7 mph - N/A   Clear
7:56 PM 25.2 °F 13.3 °F 14.0 °F 63% 30.33 in 7.0 mi WSW 13.8 mph - N/A   Clear
8:56 PM 25.2 °F 12.4 °F 14.0 °F 63% 30.33 in 7.0 mi WSW 16.1 mph - N/A   Clear
9:56 PM 24.1 °F 11.5 °F 15.1 °F 69% 30.34 in 7.0 mi WSW 15.0 mph - N/A   Clear
10:56 PM 24.1 °F 11.5 °F 15.1 °F 69% 30.34 in 7.0 mi WSW 15.0 mph - N/A   Clear
11:56 PM 23.0 °F 11.1 °F 15.1 °F 72% 30.35 in 7.0 mi WSW 12.7 mph - N/A   Clear